SCP
0 0 0 0 0 0 0 0 0 0 0 0 0 0 0 0 0 0 0 0 0 0 0 0 0 0 0 0 0 0 0 0 0 0 0 0 0 0 0 0 0 0 0 0 0
0 0 0 0 0 0 0 0 0 0 0 0 0 0 0 0 0 0 0 0 0 0 0 0 0 0 0 0 0 0 0 0 0 0 0 0 0 0 0 0 0 0 0 0 0
0 0 0 0 0 0 0 0 0 0 0 0 0 0 0 0 0 0 0 0 0 0 0 0 0 0 0 0 0 0 0 0 0 0 0 0 0 0 0 0 0 0 0 0 0
0 0 0 0 0 0 0 0 0 0 0 0 0 0 0 0 0 0 0 0 0 0 0 0 0 0 0 0 0 0 0 0 0 0 0 0 0 0 0 0 0 0 0 0 0
0 0 0 0 0 0 0 0 0 -0 0 0 0 0 0 0 0 0 0 0 0 0 0 0 0 0 0 0 0 0 0 0 0 0 0 0 0 0 0 0 0 0 0 0 0
0 0 0 0 0 0 0 0 0 0 -0 0 0 0 0 0 0 0 0 0 0 0 0 0 0 0 0 0 0 0 0 0 0 0 0 0 0 0 0 0 0 0 0 0 0
0 0 0 0 0 0 -0 0 0 0 -0 -0 0 0 0 0 0 0 0 0 0 0 0 0 0 0 0 0 0 0 0 0 0 0 0 0 0 0 0 0 0 0 0 0 0
0 0 0 0 0 0 -0 0 0 0 0 0 0 0 0 0 0 0 0 0 0 0 0 0 0 0 0 0 0 0 0 0 0 0 0 0 0 0 0 0 0 0 0 0 0
0 0 0 0 0 0 0 -0 0 0 0 0 0 0 0 0 0 0 0 0 0 0 0 0 0 0 0 0 0 0 0 0 0 0 0 0 0 0 0 0 0 0 0 0 0
0 0 0 0 0 0 0 -0 0 -0 0 0 0 0 0 0 0 0 0 0 0 0 0 0 0 0 0 0 0 0 0 0 0 0 0 0 0 0 0 0 0 0 0 0 0
0 0 0 0 -0 0 0 0 0 -0 0 0 0 0 0 0 0 0 0 0 0 0 0 0 0 0 0 0 0 0 0 0 0 0 0 0 0 0 0 0 0 0 0 0 0
0 0 0 0 0 0 0 -0 -0 -0 0 0 0 0 0 0 0 0 0 0 0 0 0 0 0 0 0 0 0 0 0 0 0 0 0 0 0 0 0 0 0 0 0 0 0
0 0 0 0 0 0 0 0 -0 -0 0 0 0 0 0 0 0 0 0 0 0 0 0 0 0 0 0 0 0 0 0 0 0 0 0 0 0 0 0 0 0 0 0 0 0
0 0 0 0 0 0 0 0 -0 -0 0 0 -0 -0 0 0 0 0 0 0 0 0 0 0 0 0 0 0 0 0 0 0 0 0 0 0 0 0 0 0 0 0 0 0 0
0 0 0 0 0 0 0 -0 0 0 0 0 0 0 0 0 0 0 0 0 0 0 0 0 0 0 0 0 0 0 0 0 0 0 0 0 0 0 0 0 0 0 0 0 0
0 0 0 0 0 -0 -0 -0 -0 0 0 0 0 0 0 0 0 0 0 0 0 0 0 0 0 0 0 0 0 0 0 0 0 0 0 0 0 0 0 0 0 0 0 0 0
0 0 0 0 0 -0 0 0 -0 0 0 0 0 0 0 0 0 0 0 0 0 0 0 0 0 0 0 0 0 0 0 0 0 0 0 0 0 0 0 0 0 0 0 0 0
-0 -0 0 0 0 -0 0 0 -0 0 0 0 0 0 0 0 0 0 0 0 0 0 0 0 0 0 0 0 0 0 0 0 0 0 0 0 0 0 0 0 0 0 0 0 0
-0 0 0 0 0 0 0 0 0 0 0 0 0 0 0 0 0 0 0 0 0 0 0 0 0 0 0 0 0 0 0 0 0 0 0 0 0 0 0 0 0 0 0 0 0
0 0 0 0 0 0 0 0 0 0 0 0 0 0 0 0 0 0 0 0 0 0 0 0 0 0 0 0 0 0 0 0 0 0 0 0 0 0 0 0 0 0 0 0 0
0 0 0 0 0 -0 0 -0 -0 -0 0 0 0 0 0 0 0 0 0 0 0 0 0 0 0 0 0 0 0 0 0 0 0 0 0 0 0 0 0 0 0 0 0 0 0
0 0 0 0 -0 0 0 -0 0 -0 0 0 0 0 0 0 0 0 0 0 0 0 0 0 0 0 0 0 0 0 0 0 0 0 0 0 0 0 0 0 0 0 0 0 0
0 0 0 -0 0 0 0 -0 -0 -0 0 0 0 0 0 0 0 0 0 0 0 0 0 0 0 0 0 0 0 0 0 0 0 0 0 0 0 0 0 0 0 0 0 0 0
0 0 0 -0 0 -0 0 0 0 -0 0 0 0 0 0 0 0 0 0 0 0 0 0 0 0 0 0 0 0 0 0 0 0 0 0 0 0 0 0 0 0 0 0 0 0
0 0 0 0 0 0 0 -0 0 0 0 0 0 0 0 0 0 0 0 0 0 0 0 0 0 0 0 0 0 0 0 0 0 0 0 0 0 0 0 0 0 -0 0 0 0
0 0 0 0 0 0 0 0 0 0 0 0 0 0 0 0 0 0 0 0 0 0 0 0 0 0 0 0 0 0 0 0 0 0 0 0 0 0 0 0 0 0 0 0 0
0 -0 0 0 0 0 0 0 0 0 0 0 0 0 0 0 0 0 0 0 0 0 0 0 0 0 0 0 0 0 0 0 0 0 0 0 0 0 0 0 0 0 0 0 0
Wind_Speed_500mb
28 32 33 32 33 37 38 35 37 40 44 40 40 46 40 35 32 34 45 46 42 36 13 24 44 52 29 15 15 5 2 7 8 12 7 7 9 7 2 11 13 16 12 16 52
27 28 27 30 35 36 41 40 42 43 19 44 36 44 37 32 35 45 41 36 37 36 41 26 33 52 16 22 10 2 8 14 5 5 3 3 3 5 4 6 5 14 19 36 54
29 30 31 31 32 33 38 40 50 42 29 24 36 34 33 23 22 44 37 40 42 36 24 22 26 37 27 18 15 8 11 3 4 15 4 5 4 10 11 6 2 22 46 59 61
28 27 27 28 30 33 35 35 36 40 61 28 35 33 32 23 12 5 12 26 42 41 38 31 31 26 15 14 15 10 10 8 11 23 19 7 5 4 1 8 6 35 49 62 64
27 27 25 23 28 34 37 34 33 34 34 38 29 34 34 26 31 11 5 9 40 45 40 44 43 24 15 14 8 10 6 5 6 38 28 11 3 4 7 2 14 37 56 58 62
30 30 30 31 35 32 36 32 33 32 34 49 36 31 37 18 32 27 11 14 26 44 47 41 30 18 14 20 7 5 20 28 24 28 25 5 4 2 10 9 13 47 60 54 58
26 28 30 33 32 33 31 35 30 29 31 38 26 28 35 46 17 26 24 16 15 42 52 52 17 15 20 12 19 20 10 22 22 18 10 16 9 11 12 14 16 38 56 51 49
31 31 31 31 32 37 34 39 37 30 26 27 23 20 17 42 26 31 29 20 17 15 20 49 24 22 8 26 11 4 7 9 5 11 12 21 4 18 31 24 18 20 41 38 49
32 31 33 33 32 36 38 38 31 30 27 19 18 16 9 22 44 30 26 24 20 16 17 44 30 8 8 12 7 3 6 9 6 8 9 6 6 5 24 29 29 27 28 31 38
34 33 35 36 32 34 34 37 30 28 26 15 13 11 12 19 51 36 31 23 18 23 34 37 17 8 5 11 14 9 7 9 10 5 10 17 12 13 21 30 29 29 23 27 31
31 30 33 36 32 29 31 28 18 8 11 6 6 7 10 12 38 42 30 25 22 17 6 21 8 23 21 14 4 10 8 6 5 16 15 17 16 24 28 17 17 23 27 23 36
29 27 26 30 28 21 24 11 19 17 11 16 9 18 7 8 20 40 40 16 12 8 8 7 7 12 12 17 10 24 25 14 5 1 1 9 24 27 12 16 23 24 21 25 26
24 23 27 19 19 15 17 12 16 26 5 6 19 10 13 5 10 28 38 14 6 6 7 9 6 15 13 13 15 8 11 8 7 4 6 5 10 9 9 24 30 26 25 24 24
24 21 21 17 13 7 10 8 12 17 9 11 3 4 8 5 5 32 37 24 7 13 12 7 4 18 12 14 19 14 9 6 12 9 7 1 8 9 9 13 11 40 33 28 29
24 19 16 13 6 4 5 10 10 5 8 15 3 3 12 6 16 18 45 16 16 11 7 8 8 12 13 10 14 8 15 13 7 7 6 2 3 11 3 8 16 12 21 18 21
21 16 15 16 10 5 10 5 2 11 8 12 11 3 4 5 4 22 25 11 13 8 4 7 3 9 10 7 9 13 12 13 8 4 1 10 9 8 7 7 5 10 7 17 21
21 13 15 11 3 5 6 2 9 9 7 12 6 5 7 2 3 7 12 9 8 12 7 2 1 3 6 13 4 7 10 5 5 2 7 1 4 12 8 11 9 16 19 19 19
21 21 17 10 4 1 3 10 13 6 10 8 6 5 8 8 2 5 12 8 4 8 8 10 3 9 5 9 13 8 11 9 13 8 4 3 9 7 6 15 21 26 26 21 17
26 25 18 11 5 6 3 9 13 11 7 10 8 9 7 4 5 7 4 10 6 5 10 9 2 1 5 5 13 7 6 6 11 5 5 7 7 3 8 14 20 20 21 18 14
40 26 17 6 5 9 10 3 4 6 9 4 4 3 0 3 4 6 10 4 2 5 4 6 8 5 3 8 9 7 13 7 6 6 5 5 2 0 12 3 10 7 13 11 9
37 13 12 11 11 4 6 10 7 8 6 2 3 0 4 2 3 3 5 4 7 4 8 6 6 5 6 9 5 5 5 8 7 7 7 4 2 7 9 15 11 12 8 5 3
18 6 22 18 8 1 3 9 3 7 5 2 3 6 5 4 4 4 8 5 11 6 12 1 7 6 6 6 5 3 4 9 7 6 2 3 4 4 4 7 18 14 10 6 1
12 9 16 10 4 4 4 4 3 4 5 5 4 4 2 4 2 6 8 6 8 4 10 8 3 6 4 3 4 6 5 7 9 4 6 8 7 2 4 5 6 11 10 9 6
10 4 4 3 5 9 4 3 6 6 6 5 5 6 2 5 2 8 6 3 6 6 13 9 6 8 8 6 5 7 7 7 6 5 4 6 3 8 9 9 15 16 16 15 13
8 2 6 2 5 2 3 3 3 6 6 4 4 2 3 1 4 9 6 5 11 13 8 7 8 5 8 7 6 4 6 9 7 6 5 5 4 13 13 11 18 22 23 23 20
10 8 9 5 6 5 8 5 1 4 7 6 4 9 5 6 4 7 9 2 4 8 5 6 5 5 6 12 8 3 5 3 3 5 5 2 11 11 35 42 22 17 27 29 26
9 15 5 4 2 6 4 1 2 0 8 11 7 6 21 11 20 29 31 28 13 6 5 6 7 6 5 8 6 7 11 9 5 5 11 7 14 7 10 18 26 25 30 31 26
Wind_Direction_500mb
314 305 299 294 300 299 293 293 286 270 252 257 248 243 250 252 252 239 233 234 234 237 224 213 214 223 227 228 190 162 196 221 206 158 235 235 131 226 70 173 193 192 184 200 169
326 316 306 299 296 298 293 289 289 281 255 245 250 237 242 246 249 249 246 236 224 220 223 216 209 212 202 225 209 121 187 202 237 201 235 292 198 181 133 125 75 115 185 167 165
325 317 311 307 306 309 308 297 296 279 280 249 236 238 224 237 260 267 247 228 209 206 197 200 202 183 191 196 178 163 209 205 359 349 317 279 326 114 143 52 126 162 155 163 168
327 328 320 315 315 315 307 305 304 285 268 262 236 233 213 214 220 227 187 208 200 201 202 198 186 179 167 168 166 228 258 74 331 335 338 346 354 48 128 142 115 166 169 168 175
328 333 334 331 325 324 316 310 302 288 276 256 264 212 207 213 228 170 110 167 188 186 198 192 177 167 158 136 112 207 306 17 282 318 308 296 254 307 238 251 155 169 173 178 181
321 322 322 319 320 319 326 317 307 288 289 272 261 200 202 224 215 213 231 179 197 203 194 189 191 171 162 158 151 205 254 275 297 279 289 256 258 165 231 198 160 181 182 185 191
323 324 324 324 321 320 325 321 311 297 274 268 235 196 206 219 213 200 190 192 203 204 204 202 158 166 146 130 150 186 194 243 232 238 265 203 269 218 178 144 138 175 187 189 199
307 311 314 320 321 330 321 323 309 296 285 261 251 230 203 220 192 187 192 194 171 161 196 197 179 185 125 121 69 302 20 183 221 267 244 170 227 234 224 223 197 176 186 192 200
299 305 309 309 314 325 321 324 312 298 286 248 250 239 196 197 199 183 179 203 187 158 154 169 175 164 136 103 74 270 204 193 250 286 331 184 185 237 209 213 224 198 197 200 201
298 299 302 302 318 324 323 320 315 297 284 233 212 197 219 191 187 175 177 171 164 164 135 152 162 132 154 165 198 181 215 199 187 223 287 293 292 294 253 227 224 214 209 211 207
295 301 299 305 316 322 320 334 339 331 260 251 204 198 77 132 190 191 172 166 146 148 164 158 143 189 190 177 53 57 270 123 338 188 164 266 274 279 265 240 194 209 228 224 216
289 302 293 300 308 313 319 336 352 342 307 261 277 235 302 152 157 186 187 162 154 137 122 109 206 166 152 148 115 175 226 203 220 257 80 196 235 248 217 243 214 202 198 209 204
276 298 299 293 301 311 316 345 329 341 316 308 236 288 276 38 149 171 187 158 92 98 133 149 213 153 158 162 178 230 181 197 190 87 50 326 275 254 237 224 248 242 224 224 226
265 285 295 285 301 318 337 325 328 332 42 318 119 15 277 212 120 176 184 152 147 170 159 210 335 168 143 174 183 220 205 151 136 128 178 184 267 249 227 233 200 239 231 225 235
251 270 285 263 276 315 353 327 325 331 38 314 359 344 310 299 133 180 171 159 145 145 147 221 154 136 162 167 153 207 147 159 131 101 124 195 148 266 27 249 238 241 241 214 212
228 254 247 245 249 309 339 354 316 44 278 338 334 217 197 250 301 134 169 139 134 110 114 196 8 163 173 146 172 151 95 61 49 81 296 213 148 267 198 225 100 56 111 165 166
206 237 229 245 285 287 332 288 40 107 316 312 327 339 168 203 30 105 149 161 144 136 144 95 339 257 139 119 52 108 93 50 17 331 214 154 151 264 318 347 327 144 131 139 154
186 200 193 209 259 216 139 44 66 240 243 321 292 333 187 141 348 90 129 144 324 94 113 146 185 195 191 152 160 168 163 152 184 194 156 121 219 259 24 36 80 127 131 128 131
179 169 164 149 132 140 63 57 193 203 274 312 357 29 338 84 129 99 134 141 188 148 129 134 202 345 152 128 145 180 154 147 103 42 88 207 270 100 90 65 64 90 111 100 102
163 144 122 140 135 150 72 254 193 242 320 343 145 135 47 335 91 91 145 64 219 176 106 175 108 2 70 96 33 154 156 77 27 115 252 285 277 234 349 26 133 106 104 97 79
141 104 151 132 128 59 131 228 272 275 300 5 322 114 218 215 67 116 163 7 18 133 88 131 77 303 127 29 131 123 133 65 113 124 170 148 253 24 322 310 189 143 139 123 65
118 79 162 148 54 24 120 192 314 309 304 260 282 253 182 182 115 170 137 39 337 280 132 109 112 82 73 49 33 41 84 143 143 248 245 123 266 10 2 6 121 144 153 156 159
80 81 145 168 121 310 344 302 277 297 305 326 263 261 305 118 171 107 82 305 349 44 139 171 8 95 56 357 50 84 96 80 86 73 206 137 261 166 134 70 133 163 187 200 228
100 96 105 34 78 134 162 295 298 242 277 280 283 251 208 43 192 135 109 49 14 59 75 83 83 146 164 161 134 144 156 117 101 130 176 181 260 251 270 226 211 219 215 217 220
79 130 150 177 293 232 283 192 355 5 314 274 313 318 133 32 37 83 87 115 38 4 49 82 107 64 47 21 43 141 139 137 149 171 143 242 223 262 252 269 256 239 212 212 222
133 157 166 171 150 174 349 299 40 334 7 345 81 24 43 99 353 154 120 73 153 17 71 18 116 115 43 21 32 48 313 333 56 107 310 326 270 271 298 298 270 248 220 219 224
139 135 132 84 100 78 238 21 39 210 65 50 18 79 47 1 78 79 86 77 78 105 90 66 112 65 287 355 20 358 216 196 195 181 157 185 238 317 304 300 297 279 237 238 234
Wind_Speed_850mb
28 32 33 32 33 37 38 35 37 40 44 40 40 46 40 35 32 34 45 46 42 36 13 24 44 52 29 15 15 5 2 7 8 12 7 7 9 7 2 11 13 16 12 16 52
27 28 27 30 35 36 41 40 42 43 19 44 36 44 37 32 35 45 41 36 37 36 41 26 33 52 16 22 10 2 8 14 5 5 3 3 3 5 4 6 5 14 19 36 54
29 30 31 31 32 33 38 40 50 42 29 24 36 34 33 23 22 44 37 40 42 36 24 22 26 37 27 18 15 8 11 3 4 15 4 5 4 10 11 6 2 22 46 59 61
28 27 27 28 30 33 35 35 36 40 61 28 35 33 32 23 12 5 12 26 42 41 38 31 31 26 15 14 15 10 10 8 11 23 19 7 5 4 1 8 6 35 49 62 64
27 27 25 23 28 34 37 34 33 34 34 38 29 34 34 26 31 11 5 9 40 45 40 44 43 24 15 14 8 10 6 5 6 38 28 11 3 4 7 2 14 37 56 58 62
30 30 30 31 35 32 36 32 33 32 34 49 36 31 37 18 32 27 11 14 26 44 47 41 30 18 14 20 7 5 20 28 24 28 25 5 4 2 10 9 13 47 60 54 58
26 28 30 33 32 33 31 35 30 29 31 38 26 28 35 46 17 26 24 16 15 42 52 52 17 15 20 12 19 20 10 22 22 18 10 16 9 11 12 14 16 38 56 51 49
31 31 31 31 32 37 34 39 37 30 26 27 23 20 17 42 26 31 29 20 17 15 20 49 24 22 8 26 11 4 7 9 5 11 12 21 4 18 31 24 18 20 41 38 49
32 31 33 33 32 36 38 38 31 30 27 19 18 16 9 22 44 30 26 24 20 16 17 44 30 8 8 12 7 3 6 9 6 8 9 6 6 5 24 29 29 27 28 31 38
34 33 35 36 32 34 34 37 30 28 26 15 13 11 12 19 51 36 31 23 18 23 34 37 17 8 5 11 14 9 7 9 10 5 10 17 12 13 21 30 29 29 23 27 31
31 30 33 36 32 29 31 28 18 8 11 6 6 7 10 12 38 42 30 25 22 17 6 21 8 23 21 14 4 10 8 6 5 16 15 17 16 24 28 17 17 23 27 23 36
29 27 26 30 28 21 24 11 19 17 11 16 9 18 7 8 20 40 40 16 12 8 8 7 7 12 12 17 10 24 25 14 5 1 1 9 24 27 12 16 23 24 21 25 26
24 23 27 19 19 15 17 12 16 26 5 6 19 10 13 5 10 28 38 14 6 6 7 9 6 15 13 13 15 8 11 8 7 4 6 5 10 9 9 24 30 26 25 24 24
24 21 21 17 13 7 10 8 12 17 9 11 3 4 8 5 5 32 37 24 7 13 12 7 4 18 12 14 19 14 9 6 12 9 7 1 8 9 9 13 11 40 33 28 29
24 19 16 13 6 4 5 10 10 5 8 15 3 3 12 6 16 18 45 16 16 11 7 8 8 12 13 10 14 8 15 13 7 7 6 2 3 11 3 8 16 12 21 18 21
21 16 15 16 10 5 10 5 2 11 8 12 11 3 4 5 4 22 25 11 13 8 4 7 3 9 10 7 9 13 12 13 8 4 1 10 9 8 7 7 5 10 7 17 21
21 13 15 11 3 5 6 2 9 9 7 12 6 5 7 2 3 7 12 9 8 12 7 2 1 3 6 13 4 7 10 5 5 2 7 1 4 12 8 11 9 16 19 19 19
21 21 17 10 4 1 3 10 13 6 10 8 6 5 8 8 2 5 12 8 4 8 8 10 3 9 5 9 13 8 11 9 13 8 4 3 9 7 6 15 21 26 26 21 17
26 25 18 11 5 6 3 9 13 11 7 10 8 9 7 4 5 7 4 10 6 5 10 9 2 1 5 5 13 7 6 6 11 5 5 7 7 3 8 14 20 20 21 18 14
40 26 17 6 5 9 10 3 4 6 9 4 4 3 0 3 4 6 10 4 2 5 4 6 8 5 3 8 9 7 13 7 6 6 5 5 2 0 12 3 10 7 13 11 9
37 13 12 11 11 4 6 10 7 8 6 2 3 0 4 2 3 3 5 4 7 4 8 6 6 5 6 9 5 5 5 8 7 7 7 4 2 7 9 15 11 12 8 5 3
18 6 22 18 8 1 3 9 3 7 5 2 3 6 5 4 4 4 8 5 11 6 12 1 7 6 6 6 5 3 4 9 7 6 2 3 4 4 4 7 18 14 10 6 1
12 9 16 10 4 4 4 4 3 4 5 5 4 4 2 4 2 6 8 6 8 4 10 8 3 6 4 3 4 6 5 7 9 4 6 8 7 2 4 5 6 11 10 9 6
10 4 4 3 5 9 4 3 6 6 6 5 5 6 2 5 2 8 6 3 6 6 13 9 6 8 8 6 5 7 7 7 6 5 4 6 3 8 9 9 15 16 16 15 13
8 2 6 2 5 2 3 3 3 6 6 4 4 2 3 1 4 9 6 5 11 13 8 7 8 5 8 7 6 4 6 9 7 6 5 5 4 13 13 11 18 22 23 23 20
10 8 9 5 6 5 8 5 1 4 7 6 4 9 5 6 4 7 9 2 4 8 5 6 5 5 6 12 8 3 5 3 3 5 5 2 11 11 35 42 22 17 27 29 26
9 15 5 4 2 6 4 1 2 0 8 11 7 6 21 11 20 29 31 28 13 6 5 6 7 6 5 8 6 7 11 9 5 5 11 7 14 7 10 18 26 25 30 31 26
Wind_Direction_850mb
314 305 299 294 300 299 293 293 286 270 252 257 248 243 250 252 252 239 233 234 234 237 224 213 214 223 227 228 190 162 196 221 206 158 235 235 131 226 70 173 193 192 184 200 169
326 316 306 299 296 298 293 289 289 281 255 245 250 237 242 246 249 249 246 236 224 220 223 216 209 212 202 225 209 121 187 202 237 201 235 292 198 181 133 125 75 115 185 167 165
325 317 311 307 306 309 308 297 296 279 280 249 236 238 224 237 260 267 247 228 209 206 197 200 202 183 191 196 178 163 209 205 359 349 317 279 326 114 143 52 126 162 155 163 168
327 328 320 315 315 315 307 305 304 285 268 262 236 233 213 214 220 227 187 208 200 201 202 198 186 179 167 168 166 228 258 74 331 335 338 346 354 48 128 142 115 166 169 168 175
328 333 334 331 325 324 316 310 302 288 276 256 264 212 207 213 228 170 110 167 188 186 198 192 177 167 158 136 112 207 306 17 282 318 308 296 254 307 238 251 155 169 173 178 181
321 322 322 319 320 319 326 317 307 288 289 272 261 200 202 224 215 213 231 179 197 203 194 189 191 171 162 158 151 205 254 275 297 279 289 256 258 165 231 198 160 181 182 185 191
323 324 324 324 321 320 325 321 311 297 274 268 235 196 206 219 213 200 190 192 203 204 204 202 158 166 146 130 150 186 194 243 232 238 265 203 269 218 178 144 138 175 187 189 199
307 311 314 320 321 330 321 323 309 296 285 261 251 230 203 220 192 187 192 194 171 161 196 197 179 185 125 121 69 302 20 183 221 267 244 170 227 234 224 223 197 176 186 192 200
299 305 309 309 314 325 321 324 312 298 286 248 250 239 196 197 199 183 179 203 187 158 154 169 175 164 136 103 74 270 204 193 250 286 331 184 185 237 209 213 224 198 197 200 201
298 299 302 302 318 324 323 320 315 297 284 233 212 197 219 191 187 175 177 171 164 164 135 152 162 132 154 165 198 181 215 199 187 223 287 293 292 294 253 227 224 214 209 211 207
295 301 299 305 316 322 320 334 339 331 260 251 204 198 77 132 190 191 172 166 146 148 164 158 143 189 190 177 53 57 270 123 338 188 164 266 274 279 265 240 194 209 228 224 216
289 302 293 300 308 313 319 336 352 342 307 261 277 235 302 152 157 186 187 162 154 137 122 109 206 166 152 148 115 175 226 203 220 257 80 196 235 248 217 243 214 202 198 209 204
276 298 299 293 301 311 316 345 329 341 316 308 236 288 276 38 149 171 187 158 92 98 133 149 213 153 158 162 178 230 181 197 190 87 50 326 275 254 237 224 248 242 224 224 226
265 285 295 285 301 318 337 325 328 332 42 318 119 15 277 212 120 176 184 152 147 170 159 210 335 168 143 174 183 220 205 151 136 128 178 184 267 249 227 233 200 239 231 225 235
251 270 285 263 276 315 353 327 325 331 38 314 359 344 310 299 133 180 171 159 145 145 147 221 154 136 162 167 153 207 147 159 131 101 124 195 148 266 27 249 238 241 241 214 212
228 254 247 245 249 309 339 354 316 44 278 338 334 217 197 250 301 134 169 139 134 110 114 196 8 163 173 146 172 151 95 61 49 81 296 213 148 267 198 225 100 56 111 165 166
206 237 229 245 285 287 332 288 40 107 316 312 327 339 168 203 30 105 149 161 144 136 144 95 339 257 139 119 52 108 93 50 17 331 214 154 151 264 318 347 327 144 131 139 154
186 200 193 209 259 216 139 44 66 240 243 321 292 333 187 141 348 90 129 144 324 94 113 146 185 195 191 152 160 168 163 152 184 194 156 121 219 259 24 36 80 127 131 128 131
179 169 164 149 132 140 63 57 193 203 274 312 357 29 338 84 129 99 134 141 188 148 129 134 202 345 152 128 145 180 154 147 103 42 88 207 270 100 90 65 64 90 111 100 102
163 144 122 140 135 150 72 254 193 242 320 343 145 135 47 335 91 91 145 64 219 176 106 175 108 2 70 96 33 154 156 77 27 115 252 285 277 234 349 26 133 106 104 97 79
141 104 151 132 128 59 131 228 272 275 300 5 322 114 218 215 67 116 163 7 18 133 88 131 77 303 127 29 131 123 133 65 113 124 170 148 253 24 322 310 189 143 139 123 65
118 79 162 148 54 24 120 192 314 309 304 260 282 253 182 182 115 170 137 39 337 280 132 109 112 82 73 49 33 41 84 143 143 248 245 123 266 10 2 6 121 144 153 156 159
80 81 145 168 121 310 344 302 277 297 305 326 263 261 305 118 171 107 82 305 349 44 139 171 8 95 56 357 50 84 96 80 86 73 206 137 261 166 134 70 133 163 187 200 228
100 96 105 34 78 134 162 295 298 242 277 280 283 251 208 43 192 135 109 49 14 59 75 83 83 146 164 161 134 144 156 117 101 130 176 181 260 251 270 226 211 219 215 217 220
79 130 150 177 293 232 283 192 355 5 314 274 313 318 133 32 37 83 87 115 38 4 49 82 107 64 47 21 43 141 139 137 149 171 143 242 223 262 252 269 256 239 212 212 222
133 157 166 171 150 174 349 299 40 334 7 345 81 24 43 99 353 154 120 73 153 17 71 18 116 115 43 21 32 48 313 333 56 107 310 326 270 271 298 298 270 248 220 219 224
139 135 132 84 100 78 238 21 39 210 65 50 18 79 47 1 78 79 86 77 78 105 90 66 112 65 287 355 20 358 216 196 195 181 157 185 238 317 304 300 297 279 237 238 234